Simultaneous Nadir Overpasses (SNOs) Predictions

Prediction of SNOs between GOES-16 and METOP-C Satellite Orbit:

Table of predicted SNOs for the next 14.0 days since TLE Epoch: 5/31/2019
Index Date Time (GOES-16) GOES-16 Lat,Lon METOP-C Lat,Lon Distance(km) Time Diff (sec)
1 06/01/2019 02:27:01 0.02, -75.19 0.21, -74.44 86.90 80
2 06/02/2019 14:45:52 -0.01, -75.21 0.85, -78.99 431.20 80
3 06/03/2019 14:27:54 -0.01, -75.21 -0.29, -74.00 138.22 80
4 06/05/2019 02:46:54 0.00, -75.20 -0.77, -78.59 386.17 80
5 06/06/2019 02:23:36 -0.00, -75.21 0.38, -73.60 183.38 80
6 06/07/2019 14:45:08 0.00, -75.23 0.64, -78.17 334.42 80
7 06/08/2019 14:21:48 0.00, -75.23 -0.45, -73.17 235.33 80
8 06/10/2019 02:43:30 -0.01, -75.24 -0.54, -77.77 288.14 80
9 06/11/2019 02:20:10 -0.00, -75.25 0.55, -72.77 282.07 80
10 06/12/2019 14:41:42 0.01, -75.28 0.48, -77.33 234.58 80
11 06/13/2019 14:18:24 0.00, -75.29 -0.66, -72.35 336.01 80




NCC Satellite Simultaneous Nadir Overpasses (SNOs) Prediction Service
